Regional Weather Roundup
Issued by NWS

Home | Current Version | Previous Version | Text Only | Print | Product List | Glossary On
Versions: 1 2 3 4 5 6 7 8 9 10 11 12 13 14 15 16 17 18 19 20 21 22 23 24 25 26 27 28 29 30 31 32 33 34 35 36 37 38 39 40 41 42 43 44 45 46 47 48 49 50
000
ASUS43 KMPX 230410
RWRMN
WEATHER ROUNDUP FOR MINNESOTA
NATIONAL WEATHER SERVICE TWIN CITIES/CHANHASSEN MN
1000 PM CST WED FEB 22 2017


NOTE: "FAIR" INDICATES FEW OR NO CLOUDS BELOW 12,000 FEET WITH NO
SIGNIFICANT WEATHER AND/OR OBSTRUCTIONS TO VISIBILITY. N/A MEANS
CURRENT SKY AND/OR WEATHER CONDITIONS ARE NOT AVAILABLE.

MNZ060>063-068>070-230500-
   Twin Cities Metro

CITY           SKY/WX    TMP DP  RH WIND       PRES   REMARKS
TWIN CITIES    CLOUDY    41  34  76 N16       29.71R
ST PAUL        CLOUDY    41  36  82 NW13      29.72R
CRYSTAL        CLOUDY    39  32  76 NW12      29.72R
BLAINE         CLOUDY    41  36  81 N18       29.72R
LAKEVILLE      CLOUDY    39  37  93 NW12      29.71R
EDEN PRAIRIE   CLOUDY    41  35  79 NW15      29.71R
SOUTH ST PAUL  CLOUDY    42  36  78 N12G20    29.70R
LAKE ELMO      CLOUDY    41  37  87 N13G18    29.70R
$$
MNZ001>005-007-008-013>017-022>024-027-028-230500-
   Northwest Minnesota

CITY           SKY/WX    TMP DP  RH WIND       PRES   REMARKS
BEMIDJI        PTCLDY    24  21  91 NW6       29.85R WCI  16
HALLOCK        CLOUDY    30  25  80 N13       29.94R WCI  20
ROSEAU         PTCLDY    28  21  74 N16       29.90R WCI  17
WARROAD        CLOUDY    28  21  74 NW10G16   29.90R WCI  19
THIEF RVR FALL CLEAR     28  25  88 NW8       29.92R WCI  20
CROOKSTON      CLEAR     30  27  86 N15       29.94R WCI  19
FOSSTON        CLEAR     27  25  93 NW9       29.89R WCI  17
DETROIT LAKES  CLEAR     32  28  86 N7        29.89R WCI  26
MOORHEAD       CLEAR     30  28  93 N13       29.93R WCI  20
PARK RAPIDS    CLEAR     28  22  78 NW7       29.84R WCI  21
MAHNOMEN       FAIR      30  25  83 N9        29.89R WCI  21
$$
MNZ006-009>011-018-025>026-230500-
   North Central Minnesota

CITY           SKY/WX    TMP DP  RH WIND       PRES   REMARKS
BAUDETTE       CLEAR     26  18  71 N14       29.86R WCI  14
FLAG ISLAND    CLOUDY    27  18  69 N16G22    29.89R WCI  14
INTL FALLS     CLOUDY    26  22  84 NW6       29.82R WCI  19
WASKISH        CLEAR     27  23  86 NW5       29.86R WCI  21
BIG FORK       MOCLDY    28  25  86 N3        29.82R
LONGVILLE      PTCLDY    28  27  93 NW5       29.82R WCI  23
GRAND RAPIDS   CLOUDY    29  27  92 N13       29.81R WCI  19
CRANE LAKE     CLOUDY    30  25  80 N5        29.81S WCI  25
ORR            CLOUDY    28  25  86 CALM      29.77S
COOK           MOCLDY    28  27  93 NW3       29.79R
WALKER         MOCLDY    27  24  89 NW5       29.84R WCI  21
$$
MNZ012-019>021-037-230500-
   Northeast Minnesota

CITY           SKY/WX    TMP DP  RH WIND       PRES   REMARKS
DULUTH         LGT SNOW  34  32  92 N12G21    29.71R FOG     WCI  25
ELY            FLURRIES  30  28  93 NW3       29.75S
HIBBING        CLOUDY    30  29  96 N13       29.77R WCI  20
EVELETH        MIX PCPN  32  30  92 N6        29.77R WCI  27
DULUTH HARBOR  MIX PCPN  34  32  93 CALM      29.75R
TWO HARBORS    LGT SNOW  36  30  80 N3        29.70R
SILVER BAY     LGT SNOW  34  34 100 N3        29.69S
GRAND MARAIS     N/A     35  31  85 N12G18    29.71S WCI  27
G MARAIS ARPRT LGT SNOW  28  25  86 N12G18    29.68S WCI  18
$$
MNZ029>031-032-039>041-046>048-054>057-064-230500-
   West Central Minnesota

CITY           SKY/WX    TMP DP  RH WIND       PRES   REMARKS
FERGUS FALLS   MOCLDY    32  25  74 N13G20    29.92R WCI  22
WHEATON        CLOUDY    32  28  86 NW16G22   29.92R WCI  21
MORRIS         CLOUDY    34  30  86 N16       29.86R WCI  23
ALEXANDRIA     CLOUDY    33  31  92 N14       29.84R WCI  23
ELBOW LAKE     CLOUDY    32  29  89 N13       29.88R WCI  22
WADENA         PTCLDY    28  27  93 N9        29.85R WCI  20
GLENWOOD       MOCLDY    34  30  86 N16G23    29.83R WCI  23
APPLETON       CLOUDY    36  30  80 NW12      29.88R
BENSON         CLOUDY    36  30  80 N12G17    29.86R
ORTONVILLE     CLOUDY    32  28  86 N17       29.90R WCI  21
MADISON        CLOUDY    36  34  93 N20G26    29.87S
WILLMAR        CLOUDY    37  34  87 N13       29.83R
$$
MNZ033>034-036-042>043-049>051-058-059-230500-
   Central Minnesota

CITY           SKY/WX    TMP DP  RH WIND       PRES   REMARKS
ST CLOUD       CLOUDY    35  32  88 N15G22    29.78R WCI  25
SAUK CENTRE    CLOUDY    33  30  90 N16G24    29.82R WCI  22
PAYNESVILLE    CLOUDY    35  32  89 N9G17     29.81R WCI  27
AITKIN         MIX PCPN  34  28  80 N9        29.78R WCI  26
PINE RIVER     CLEAR     30  27  86 N12       29.86R WCI  21
BRAINERD       FLURRIES  32  29  88 N16       29.81R WCI  21
STAPLES        CLOUDY    28  27  93 N13       29.84R WCI  18
LONG PRAIRIE   CLOUDY    32  30  93 NW15G21   29.83R WCI  22
LITTLE FALLS   CLOUDY    32  30  93 NW7G16    29.81R WCI  26
LITCHFIELD     CLOUDY    37  34  87 N14G23    29.79R
BUFFALO        CLOUDY    36  32  85 NW9G20    29.77R
MAPLE LAKE     CLOUDY    37  33  89 N14G25    29.77R
HUTCHINSON     CLOUDY    37  34  89 NW18      29.79R
$$
MNZ037-044-045-052-053-230500-
   East Central Minnesota

CITY           SKY/WX    TMP DP  RH WIND       PRES   REMARKS
PRINCETON      CLOUDY    37  32  81 NW17      29.76R
MORA           CLOUDY    34  32  93 N8        29.76R WCI  27
CAMBRIDGE      DRIZZLE   37  30  75 NW9       29.73R
RUSH CITY      DRIZZLE   34  32  93 N9        29.73R WCI  26
MOOSE LAKE     FLURRIES  32  32 100 N6        29.72R WCI  26
HINCKLEY       CLOUDY    34  34 100 N12G17    29.73R WCI  25
CLOQUET        LGT SNOW  34  30  86 N12       29.72S WCI  25
MCGREGOR       CLOUDY    32  32 100 N14       29.77R WCI  22
$$
MNZ071>073-080-081-089-090-097-098-230500-
   Southwest Minnesota

CITY           SKY/WX    TMP DP  RH WIND       PRES   REMARKS
MONTEVIDEO     CLOUDY    34  34 100 N16G22    29.86R WCI  23
GRANITE FALLS  CLOUDY    37  33  88 NW14G21   29.86R
CANBY          CLOUDY    33  32  94 N15G28    29.87R WCI  23
MARSHALL       CLOUDY    34  32  92 N18G25    29.84R WCI  23
REDWOOD FALLS  CLOUDY    38  32  79 N12       29.81R
OLIVIA         CLOUDY    36  32  87 N12       29.81R
PIPESTONE      CLOUDY    34  28  80 N12       29.84R WCI  25
WINDOM         CLOUDY    36  34  93 NW22G28   29.80R
WORTHINGTON    CLOUDY    35  33  92 N21       29.81R WCI  24
JACKSON          N/A     36  34  93 NW24G31   29.79R
TRACY          CLOUDY    35  33  94 NW18G24   29.84R WCI  24
SLAYTON        CLOUDY    32  32  99 NW15G22   29.82R WCI  22
$$
MNZ065>067-074>077-082>085-091>093-230500-
   South Central Minnesota

CITY           SKY/WX    TMP DP  RH WIND       PRES   REMARKS
MANKATO          N/A     41  37  86 NW17G23   29.76R
NEW ULM        CLOUDY    39  34  81 N16       29.77S
ST JAMES       CLOUDY    37  36  93 W18G25    29.79S
FAIRMONT       CLOUDY    38  36  92 NW20      29.78R
GLENCOE        CLOUDY    38  36  92 NW14G23   29.77R
FARIBAULT      CLOUDY    43  39  87 W9G17     29.73R
OWATONNA       CLOUDY    43  39  87 W13       29.72R
WASECA         CLOUDY    41  37  87 W17       29.75R
ALBERT LEA     CLOUDY    45  39  81 NW14G25   29.71R
$$
MNZ078>079-086>088-094>096-230500-
   Southeast Minnesota

CITY           SKY/WX    TMP DP  RH WIND       PRES   REMARKS
ROCHESTER      CLOUDY    44  42  93 NW17      29.67R
RED WING       CLOUDY    46  37  71 NW13G20   29.66R
STANTON        MOCLDY    43  38  83 NW16      29.70R
DODGE CENTER   PTCLDY    43  39  87 W12       29.69R
WINONA         CLEAR     50  43  76 W12G17    29.64R
AUSTIN         CLOUDY    43  39  87 NW16G23   29.70R
PRESTON        PTCLDY    45  41  88 NW15G21   29.66R
$$
ABBREVIATIONS USED IN REMARKS
   TC - TEMPERATURES IN CELSIUS
  WCI - WIND CHILL INDEX
   HX - HEAT INDEX
  VSB - VISIBILITY
$$




USA.gov is the U.S. government's official web portal to all federal, state and local government web resources and services.